Weather History for KTMB - December, 2012

Change the Weather History Date:

Thursday, December 13, 2012

  Actual Average (KMIA) Record (KMIA)
Temperature  
Mean Temperature 75 °F 71 °F  
Max Temperature 84 °F 78 °F 89 °F (1900)
Min Temperature 66 °F 64 °F 33 °F (1934)
Degree Days  
Heating Degree Days 0 1  
Month to date heating degree days 9  
Since 1 July heating degree days 12  
Cooling Degree Days 10 7  
Month to date cooling degree days 96  
Year to date cooling degree days 4468  
Growing Degree Days 25 (Base 50)    
Moisture  
Dew Point 68 °F    
Average Humidity 87    
Maximum Humidity 100    
Minimum Humidity 63    
Precipitation  
Precipitation 0.01 in 0.07 in 0.87 in (1997)
Month to date precipitation 0.90  
Year to date precipitation 60.76  
Snow  
Snow 0.00 in - - ()
Month to date snowfall  
Since 1 July snowfall  
Snow Depth -    
Sea Level Pressure  
Sea Level Pressure 30.07 in    
Wind  
Wind Speed 4 mph (NW)    
Max Wind Speed 16 mph    
Max Gust Speed 23 mph    
Visibility 8 miles    
Events      
T = Trace of Precipitation, MM = Missing Value Source: NWS Daily Summary

Daily Weather History Graph

Daily Weather History Graph

Search for Another Location

Airport or City:

Trip Planner

Search our weather history database for the weather conditions in past years. The results will help you decide how hot, cold, wet, or windy it might be!

Date:

Astronomy

Dec. 13, 2012 Rise Set
Actual Time 6:59 AM EST 5:32 PM EST
Civil Twilight 6:34 AM EST 5:58 PM EST
Nautical Twilight 6:05 AM EST 6:26 PM EST
Astronomical Twilight 5:37 AM EST 6:54 PM EST
Moon 7:08 AM EST (12/13) 6:11 PM EST (12/13)
Length of Visible Light 11h 23m
Length of Day
10h 33m
New Moon, 0% of the Moon is Illuminated
Dec 13
New Moon
Dec 20
First Quarter
Dec 28
Full
Jan 4
Last Quarter
Jan 11
New

Hourly Weather History & Observations

Time (EST) Temp. Heat Index Dew Point Humidity Pressure Visibility Wind Dir Wind Speed Gust Speed Precip Events Conditions
12:53 AM 68.0 °F - 68.0 °F 100% 30.07 in 10.0 mi Calm Calm - N/A   Clear
1:53 AM 68.0 °F - 66.9 °F 96% 30.06 in 8.0 mi WNW 3.5 mph - N/A   Partly Cloudy
2:53 AM 70.0 °F - 70.0 °F 100% 30.06 in 9.0 mi Calm Calm - N/A   Overcast
3:53 AM 71.1 °F - 70.0 °F 96% 30.04 in 10.0 mi Calm Calm - N/A   Clear
4:13 AM 68.0 °F - 66.2 °F 94% 30.05 in 1.5 mi Calm Calm - N/A   Clear
4:17 AM 68.0 °F - 66.2 °F 94% 30.05 in 0.8 mi Calm Calm - N/A   Mist
4:31 AM 69.8 °F - 69.8 °F 100% 30.04 in 1.5 mi Calm Calm - N/A   Scattered Clouds
4:38 AM 69.8 °F - 69.8 °F 100% 30.04 in 10.0 mi Calm Calm - N/A   Scattered Clouds
4:53 AM 69.1 °F - 68.0 °F 96% 30.04 in 8.0 mi Calm Calm - N/A   Clear
5:53 AM 70.0 °F - 70.0 °F 100% 30.06 in 10.0 mi Calm Calm - N/A   Clear
6:14 AM 66.2 °F - 66.2 °F 100% 30.06 in 1.8 mi Calm Calm - N/A   Clear
6:30 AM 69.8 °F - 69.8 °F 100% 30.05 in 7.0 mi South 4.6 mph - 0.01 in   Clear
6:53 AM 68.0 °F - 66.9 °F 96% 30.07 in 6.0 mi West 3.5 mph - 0.01 in   Clear
7:36 AM 66.2 °F - 66.2 °F 100% 30.07 in 1.0 mi Calm Calm - N/A   Mist
7:53 AM 70.0 °F - 68.0 °F 93% 30.09 in 4.0 mi Calm Calm - N/A   Clear
8:53 AM 75.9 °F - 73.0 °F 91% 30.10 in 10.0 mi WSW 3.5 mph - N/A   Clear
9:49 AM 78.8 °F - 71.6 °F 78% 30.10 in 10.0 mi West 8.1 mph - N/A   Mostly Cloudy
9:53 AM 80.1 °F 83.8 °F 72.0 °F 76% 30.10 in 10.0 mi West 8.1 mph - N/A   Mostly Cloudy
10:00 AM 80.6 °F 84.6 °F 71.6 °F 74% 30.10 in 10.0 mi West 6.9 mph - N/A   Mostly Cloudy
10:27 AM 78.8 °F - 71.6 °F 78% 30.11 in 10.0 mi WNW 5.8 mph - N/A   Mostly Cloudy
10:53 AM 81.0 °F 84.9 °F 71.1 °F 72% 30.10 in 10.0 mi West 6.9 mph - N/A   Partly Cloudy
11:53 AM 84.9 °F 90.1 °F 71.1 °F 63% 30.09 in 10.0 mi WNW 11.5 mph - 0.00 in   Mostly Cloudy
12:12 PM 78.8 °F - 71.6 °F 78% 30.08 in 10.0 mi NNW 16.1 mph - 0.00 in   Mostly Cloudy
12:53 PM 77.0 °F - 70.0 °F 79% 30.07 in 10.0 mi North 15.0 mph - 0.00 in   Mostly Cloudy
1:28 PM 78.8 °F - 69.8 °F 74% 30.06 in 10.0 mi North 13.8 mph - N/A   Mostly Cloudy
1:53 PM 75.9 °F - 69.1 °F 79% 30.06 in 10.0 mi North 15.0 mph 23.0 mph N/A   Overcast
2:53 PM 73.9 °F - 68.0 °F 82% 30.06 in 10.0 mi North 15.0 mph - N/A   Overcast
3:53 PM 73.0 °F - 66.9 °F 81% 30.06 in 10.0 mi North 13.8 mph - N/A   Overcast
6:45 PM 71.6 °F - 64.4 °F 78% 30.08 in 10.0 mi NNE 11.5 mph - N/A   Overcast
6:53 PM 71.6 °F - 64.4 °F 78% 30.08 in 10.0 mi North 11.5 mph - N/A   Overcast
7:53 PM 71.6 °F - 64.4 °F 78% 30.09 in 10.0 mi NNE 11.5 mph - N/A   Partly Cloudy
8:53 PM 70.0 °F - 64.0 °F 81% 30.10 in 10.0 mi North 9.2 mph - N/A   Overcast
9:53 PM 69.1 °F - 63.0 °F 81% 30.11 in 10.0 mi North 10.4 mph - N/A   Overcast
10:53 PM 66.9 °F - 63.0 °F 87% 30.11 in 10.0 mi North 12.7 mph - N/A   Scattered Clouds
11:53 PM 66.0 °F - 62.1 °F 87% 30.09 in 10.0 mi North 11.5 mph 20.7 mph N/A   Mostly Cloudy